Weather History for Tomahawk, WI

Change the Weather History Date:

Saturday, December 8, 2012

  Actual Average (KRHI) Record (KRHI)
Temperature  
Mean Temperature 22 °F 19 °F  
Max Temperature 32 °F 27 °F 61 °F (1939)
Min Temperature 12 °F 11 °F -24 °F (1972)
Degree Days  
Heating Degree Days 43 46  
Month to date heating degree days 355  
Since 1 July heating degree days 2489  
Cooling Degree Days 0 0  
Month to date cooling degree days 0  
Year to date cooling degree days 261  
Moisture  
Dew Point 19 °F    
Average Humidity 86    
Maximum Humidity 100    
Minimum Humidity 64    
Precipitation  
Precipitation 0.00 in 0.05 in 0.63 in (1969)
Month to date precipitation 0.42  
Year to date precipitation 30.38  
Snow  
Snow 0.00 in - 8.00 in (1969)
Month to date snowfall  
Since 1 July snowfall  
Snow Depth -    
Sea Level Pressure  
Sea Level Pressure 30.03 in    
Wind  
Wind Speed 1 mph (East)    
Max Wind Speed 7 mph    
Max Gust Speed -    
Visibility 9 miles    
Events Snow    
T = Trace of Precipitation, MM = Missing Value Source: NWS Daily Summary

Daily Weather History Graph

Daily Weather History Graph

Search for Another Location

Airport:

Trip Planner

Search our weather history database for the weather conditions in past years. The results will help you decide how hot, cold, wet, or windy it might be!

Date:

Astronomy

Dec. 08, 2012 Rise Set
Actual Time 7:26 AM CST 4:15 PM CST
Civil Twilight 6:52 AM CST 4:49 PM CST
Nautical Twilight 6:15 AM CST 5:27 PM CST
Astronomical Twilight 5:39 AM CST 6:03 PM CST
Moon 1:38 AM CST (12/8) 12:57 PM CST (12/8)
Length of Visible Light 9h 56m
Length of Day
8h 49m
Waning Crescent, 28% of the Moon is Illuminated
Dec 8
Waning Crescent
Dec 13
New
Dec 19
First Quarter
Dec 28
Full
Jan 4
Last Quarter

Hourly Weather History & Observations

Time (CST) Temp. Windchill Dew Point Humidity Pressure Visibility Wind Dir Wind Speed Gust Speed Precip Events Conditions
12:15 AM 24.8 °F - 21.2 °F 86% 29.98 in 7.0 mi Calm Calm - N/A   Overcast
12:35 AM 24.8 °F - 21.2 °F 86% 29.98 in 5.0 mi Calm Calm - N/A Snow Light Snow
12:55 AM 23.0 °F - 21.2 °F 93% 29.98 in 7.0 mi Calm Calm - N/A Snow Light Snow
1:15 AM 24.8 °F - 21.2 °F 86% 29.97 in 7.0 mi Calm Calm - N/A Snow Light Snow
1:35 AM 23.0 °F - 21.2 °F 93% 29.97 in 4.0 mi Calm Calm - N/A Snow Light Snow
1:55 AM 23.0 °F - 23.0 °F 100% 29.98 in 3.0 mi Calm Calm - N/A Snow Light Snow
2:15 AM 23.0 °F - 21.2 °F 93% 29.98 in 3.0 mi Calm Calm - N/A Snow Light Snow
2:35 AM 23.0 °F - 21.2 °F 93% 29.98 in 3.0 mi Calm Calm - N/A Snow Light Snow
2:55 AM 23.0 °F - 21.2 °F 93% 29.98 in 5.0 mi Calm Calm - N/A Snow Light Snow
3:15 AM 21.2 °F - 21.2 °F 100% 29.98 in 7.0 mi Calm Calm - N/A   Overcast
3:35 AM 21.2 °F - 19.4 °F 93% 29.98 in 5.0 mi Calm Calm - N/A   Mostly Cloudy
3:55 AM 21.2 °F - 19.4 °F 93% 29.98 in 7.0 mi Calm Calm - N/A   Mostly Cloudy
4:15 AM 21.2 °F - 19.4 °F 93% 29.98 in 5.0 mi Calm Calm - N/A Snow Light Snow
4:35 AM 21.2 °F - 19.4 °F 93% 29.98 in 5.0 mi Calm Calm - N/A Snow Light Snow
4:55 AM 19.4 °F - 17.6 °F 93% 29.98 in 4.0 mi Calm Calm - N/A Snow Light Snow
5:15 AM 19.4 °F - 19.4 °F 100% 29.99 in 10.0 mi Calm Calm - N/A   Overcast
5:35 AM 19.4 °F - 17.6 °F 93% 29.99 in 10.0 mi Calm Calm - N/A   Overcast
5:55 AM 19.4 °F - 17.6 °F 93% 29.98 in 10.0 mi Calm Calm - N/A   Overcast
6:15 AM 15.8 °F - 14.0 °F 93% 29.99 in 10.0 mi Calm Calm - N/A   Scattered Clouds
6:35 AM 17.6 °F - 17.6 °F 100% 29.99 in 10.0 mi Calm Calm - N/A   Mostly Cloudy
6:55 AM 17.6 °F - 14.0 °F 86% 30.00 in 10.0 mi Calm Calm - N/A   Overcast
7:15 AM 15.8 °F - 12.2 °F 86% 30.00 in 10.0 mi Calm Calm - N/A   Scattered Clouds
7:35 AM 14.0 °F - 12.2 °F 93% 30.00 in 10.0 mi Calm Calm - N/A   Clear
7:55 AM 12.2 °F - 8.6 °F 85% 30.02 in 10.0 mi Calm Calm - N/A   Clear
8:15 AM 12.2 °F - 10.4 °F 92% 30.02 in 10.0 mi Calm Calm - N/A   Clear
8:35 AM 15.8 °F - 14.0 °F 93% 30.02 in 10.0 mi Calm Calm - N/A   Clear
8:55 AM 17.6 °F - 17.6 °F 100% 30.02 in 10.0 mi Calm Calm - N/A   Clear
9:15 AM 19.4 °F - 19.4 °F 100% 30.03 in 10.0 mi Calm Calm - N/A   Clear
9:35 AM 21.2 °F - 19.4 °F 93% 30.03 in 10.0 mi Calm Calm - N/A   Clear
9:55 AM 23.0 °F - 23.0 °F 100% 30.03 in 10.0 mi Calm Calm - N/A   Clear
10:15 AM 24.8 °F - 23.0 °F 93% 30.03 in 10.0 mi Calm Calm - N/A   Clear
10:35 AM 26.6 °F 22.6 °F 21.2 °F 80% 30.03 in 10.0 mi ENE 3.5 mph - N/A   Clear
10:55 AM 28.4 °F 24.6 °F 21.2 °F 74% 30.03 in 10.0 mi East 3.5 mph - N/A   Clear
11:15 AM 28.4 °F 24.6 °F 21.2 °F 74% 30.03 in 10.0 mi East 3.5 mph - N/A   Clear
11:35 AM 30.2 °F - 21.2 °F 69% 30.02 in 10.0 mi Calm Calm - N/A   Scattered Clouds
11:55 AM 30.2 °F - 21.2 °F 69% 30.02 in 10.0 mi Calm Calm - N/A   Mostly Cloudy
12:15 PM 28.4 °F - 21.2 °F 74% 30.02 in 10.0 mi Calm Calm - N/A   Mostly Cloudy
12:35 PM 28.4 °F - 21.2 °F 74% 30.03 in 10.0 mi Calm Calm - N/A   Scattered Clouds
12:55 PM 30.2 °F 25.4 °F 21.2 °F 69% 30.02 in 10.0 mi NNE 4.6 mph - N/A   Mostly Cloudy
1:15 PM 30.2 °F 26.7 °F 21.2 °F 69% 30.02 in 10.0 mi East 3.5 mph - N/A   Mostly Cloudy
1:35 PM 30.2 °F - 21.2 °F 69% 30.02 in 10.0 mi Calm Calm - N/A   Scattered Clouds
1:55 PM 32.0 °F 28.7 °F 21.2 °F 64% 30.01 in 10.0 mi NNE 3.5 mph - N/A   Clear
2:15 PM 30.2 °F - 19.4 °F 64% 30.00 in 10.0 mi Calm Calm - N/A   Clear
2:35 PM 32.0 °F - 21.2 °F 64% 30.02 in 10.0 mi Calm Calm - N/A   Clear
2:55 PM 30.2 °F - 21.2 °F 69% 30.02 in 10.0 mi Calm Calm - N/A   Clear
3:15 PM 30.2 °F - 19.4 °F 64% 30.03 in 10.0 mi Calm Calm - N/A   Clear
3:35 PM 30.2 °F - 19.4 °F 64% 30.04 in 10.0 mi Calm Calm - N/A   Clear
3:55 PM 28.4 °F - 21.2 °F 74% 30.05 in 10.0 mi Calm Calm - N/A   Clear
4:15 PM 26.6 °F - 21.2 °F 80% 30.06 in 10.0 mi Calm Calm - N/A   Clear
4:35 PM 24.8 °F - 19.4 °F 80% 30.05 in 10.0 mi Calm Calm - N/A   Clear
4:55 PM 24.8 °F - 19.4 °F 80% 30.05 in 10.0 mi Calm Calm - N/A   Clear
5:15 PM 24.8 °F - 19.4 °F 80% 30.05 in 10.0 mi Calm Calm - N/A   Clear
5:35 PM 21.2 °F - 19.4 °F 93% 30.06 in 10.0 mi Calm Calm - N/A   Clear
5:55 PM 21.2 °F - 17.6 °F 86% 30.07 in 10.0 mi Calm Calm - N/A   Clear
6:15 PM 19.4 °F 14.3 °F 15.8 °F 86% 30.07 in 10.0 mi ESE 3.5 mph - N/A   Clear
6:35 PM 19.4 °F 14.3 °F 15.8 °F 86% 30.08 in 10.0 mi ESE 3.5 mph - N/A   Clear
6:55 PM 19.4 °F - 17.6 °F 93% 30.08 in 10.0 mi Calm Calm - N/A   Clear
7:15 PM 17.6 °F 10.7 °F 15.8 °F 93% 30.07 in 10.0 mi East 4.6 mph - N/A   Clear
7:55 PM 17.6 °F 12.3 °F 14.0 °F 86% 30.07 in 10.0 mi East 3.5 mph - N/A   Clear
8:15 PM 14.0 °F - 12.2 °F 93% 30.07 in 10.0 mi Calm Calm - N/A   Clear
8:35 PM 19.4 °F 14.3 °F 17.6 °F 93% 30.07 in 10.0 mi East 3.5 mph - N/A   Clear
8:55 PM 19.4 °F - 17.6 °F 93% 30.07 in 10.0 mi Calm Calm - N/A   Clear
9:15 PM 17.6 °F 12.3 °F 15.8 °F 93% 30.07 in 10.0 mi ESE 3.5 mph - N/A   Clear
9:35 PM 21.2 °F 14.9 °F 19.4 °F 93% 30.07 in 10.0 mi SE 4.6 mph - N/A   Clear
9:55 PM 21.2 °F - 17.6 °F 86% 30.08 in 10.0 mi Calm Calm - N/A   Clear
10:15 PM 21.2 °F - 17.6 °F 86% 30.08 in 10.0 mi Calm Calm - N/A   Clear
10:35 PM 21.2 °F 16.4 °F 17.6 °F 86% 30.09 in 10.0 mi SE 3.5 mph - N/A   Clear
10:55 PM 21.2 °F 16.4 °F 17.6 °F 86% 30.10 in 10.0 mi SE 3.5 mph - N/A   Clear
11:15 PM 21.2 °F 16.4 °F 17.6 °F 86% 30.10 in 10.0 mi ESE 3.5 mph - N/A   Clear
11:35 PM 21.2 °F 14.9 °F 17.6 °F 86% 30.08 in 10.0 mi ESE 4.6 mph - N/A   Clear
11:55 PM 23.0 °F 14.7 °F 19.4 °F 86% 30.08 in 10.0 mi ESE 6.9 mph - N/A   Clear